sat.trackr.live / text

‹ back to catalog

STARLINK-35911

NORAD 68051 · 2026-041M

PAYLOAD ACTIVE UNKNOWN

§ Identity

Operator
Country
US
Launch date
2026-03-02
Launch site
AFETR
Launch vehicle
Mass (kg)
RCS (m²)

Purposes: comms

External: N2YO · Heavens-Above · Gunter

§ Orbital elements

Epoch: 2026-05-25T00:24:52.896960Z

Period
94.10 min
Inclination
53.1611°
Eccentricity
0.0001382
Mean motion
15.30238430 rev/d
Perigee alt
474.2 km
Apogee alt
476.0 km
Semi-major
6,853.2 km
B*
7.4492e-4
RAAN
55.3906°
Arg perigee
75.6674°
Mean anomaly
284.4480°
Rev number
1,307

§ Raw data

STARLINK-359111 68051U 26041M   26145.01727890  .00021794  00000+0  74492-3 0  99962 68051  53.1611  55.3906 0001382  75.6674 284.4480 15.30238430 13076

JSON: /api/v1/satellites/68051 · /tle

For live sub-satellite position, see the globe view (requires WebGL).

§ Visibility from observer

Set your observer location to see the next 7 days of passes ≥ 10°. The values pass through the URL so the page stays shareable.

No JS? Fill the form by hand. The geolocation button needs JavaScript.